Millbury, Ohio, United States (43447)
Lat: 41.57N, Lon: 83.42W
Wx Zone: OHZ006
Local Info
Past Weather Observations for Today

NOTE: This archive is for the closest National Weather Service station to Millbury. Information may differ from the station used for current weather conditions.

Click here for Long-term Archive

Time Weather Temperature Dewpoint Humidity Pressure Winds Precip Visibility
12:53
Overcast
72°F / 22°C 66°F / 19°C 83% 29.92 in
(1013 mb)
SW 11.5 mph
(SW 19 kph)
0.31 in
(7.87 mm)
10SM
12:51
Overcast
Light Rain
72°F / 22°C 66°F / 19°C 83% 29.92 in
(1013 mb)
SSW 11.5 mph
(SSW 19 kph)
0.31 in
(7.87 mm)
10SM
12:35
Overcast
Rain
70°F / 21°C 66°F / 19°C 88% 29.92 in
(1013 mb)
SSW 10.4 mph
(SSW 17 kph)
0.30 in
(7.62 mm)
5SM
12:28
Overcast
Rain
70°F / 21°C 66°F / 19°C 88% 29.92 in
(1013 mb)
SSW 11.5 mph
(SSW 19 kph)
0.28 in
(7.11 mm)
2SM
12:22
Overcast
Heavy Rain
70°F / 21°C 66°F / 19°C 88% 29.92 in
(1013 mb)
SSW 15 mph
(SSW 24 kph)
0.26 in
(6.60 mm)
1SM
12:11
Overcast
Heavy Rain
72°F / 22°C 66°F / 19°C 83% 29.92 in
(1013 mb)
SSW 17.3 mph
(SSW 28 kph)
0.07 in
(1.78 mm)
1 3/4SM
11:53
Overcast
73°F / 23°C 64°F / 18°C 74% 29.92 in
(1013 mb)
SSW 13.8 mph
(SSW 22 kph)
- 10SM
11:46
Overcast
73°F / 23°C 64°F / 18°C 74% 29.92 in
(1013 mb)
SW 13.8 mph
(SW 22 kph)
- 10SM
11:28
Mostly Cloudy
75°F / 24°C 64°F / 18°C 69% 29.92 in
(1013 mb)
SSW 17.3 mph
(SSW 28 kph)
- 10SM
11:01
Mostly Cloudy
73°F / 23°C 64°F / 18°C 74% 29.92 in
(1013 mb)
SW 12.7 mph
(SW 20 kph)
- 10SM
10:53
Overcast
73°F / 23°C 64°F / 18°C 74% 29.92 in
(1013 mb)
SW 16.1 mph
(SW 26 kph)
- 10SM
10:01
Overcast
73°F / 23°C 66°F / 19°C 78% 29.92 in
(1013 mb)
SW 8.1 mph
(SW 13 kph)
- 10SM
09:53
Mostly Cloudy
73°F / 23°C 66°F / 19°C 78% 29.92 in
(1013 mb)
SW 12.7 mph
(SW 20 kph)
- 10SM
08:53
Clear
72°F / 22°C 64°F / 18°C 78% 29.89 in
(1012 mb)
SSW 10.4 mph
(SSW 17 kph)
- 10SM
07:53
Clear
70°F / 21°C 64°F / 18°C 83% 29.92 in
(1013 mb)
SW 9.2 mph
(SW 15 kph)
0.00 in
(0.00 mm)
10SM
06:53
Mostly Cloudy
Light Rain
70°F / 21°C 66°F / 19°C 88% 29.92 in
(1013 mb)
SW 11.5 mph
(SW 19 kph)
0.02 in
(0.51 mm)
10SM
05:53
Mostly Cloudy
70°F / 21°C 66°F / 19°C 88% 29.92 in
(1013 mb)
SW 9.2 mph
(SW 15 kph)
- 10SM
04:53
Partly Cloudy
70°F / 21°C 64°F / 18°C 83% 29.92 in
(1013 mb)
SW 6.9 mph
(SW 11 kph)
- 10SM
03:53
Clear
70°F / 21°C 64°F / 18°C 83% 29.89 in
(1012 mb)
SW 8.1 mph
(SW 13 kph)
- 10SM
02:53
Clear
72°F / 22°C 66°F / 19°C 83% 29.89 in
(1012 mb)
SW 6.9 mph
(SW 11 kph)
- 10SM
01:53
Clear
72°F / 22°C 66°F / 19°C 83% 29.89 in
(1012 mb)
SW 8.1 mph
(SW 13 kph)
- 10SM
00:53
Clear
73°F / 23°C 68°F / 20°C 83% 29.89 in
(1012 mb)
SW 8.1 mph
(SW 13 kph)
- 10SM
Time Weather Temperature Dewpoint Humidity Pressure Winds Precip Visibility


Weather for websites

WeatherForYou.com, LLC is not responsible for any damages or problems caused by this service. Current weather conditions are obtained from the closest station including government and personal stations which may have varying degrees of accuracy. Weather forecasts are derived from the NOAA NDFD. Like all things, this site belongs to Jesus Christ... He just trusts me to maintain it. If you have any questions or comments email webmaster@weatherforyou.com

Copyright © 2014, WeatherForYou.com LLC. All rights reserved.